This demonstration page uses our WeatherBlox Daily Observations layout. Learn more.

41.55636, -103.73856

Hourly Observations for October 7, 2019

Temp ( °F °C ) Dew Point ( °F °C ) Humidity (%) Winds ( mph kmh ) Pressure ( in mb ) Visibility ( mi km ) Precip ( " mm )
12:58 am 00:58 Clear 53 11.9 16 -8.9 23 23 E 5 7 30.28 1025 10 16.0934 0 0
1:58 am 01:58 Clear 45 7.1 19 -7.5 35 35 S 7 11 30.32 1027 10 16.0934 0 0
2:58 am 02:58 Clear 45 7.3 18 -7.9 33 33 SSW 8 13 30.31 1026 10 16.0934 0 0
3:58 am 03:58 Clear 42 5.3 18 -7.9 38 38 SSW 9 15 30.32 1027 10 16.0934 0 0
4:58 am 04:58 Clear 40 4.5 17 -8.1 40 40 SW 9 15 30.3 1026 10 16.0934 0 0
5:58 am 05:58 Clear 41 5 20 -6.4 44 44 SSW 12 19 30.29 1026 10 16.0934 0 0
6:58 am 06:58 Clear 40 4.7 21 -6 46 46 W 3 6 30.27 1025 10 16.0934 0 0
7:58 am 07:58 Clear 43 6 19 -7.1 39 39 Calm 30.26 1025 10 16.0934 0 0
8:58 am 08:58 Clear 42 5.3 18 -7.8 39 39 Calm 30.24 1024 10 16.0934 0 0
9:58 am 09:58 Clear 39 3.8 19 -7 46 46 SW 3 6 30.24 1024 10 16.0934 0 0
10:58 am 10:58 Clear 37 3 20 -6.9 49 49 W 3 6 30.25 1024 10 16.0934 0 0
11:58 am 11:58 Clear 35 1.9 18 -7.7 49 49 SW 7 11 30.25 1024 10 16.0934 0 0
12:58 pm 12:58 Sunny 32 0.2 18 -8 54 54 WSW 7 11 30.27 1025 10 16.0934 0 0
1:58 pm 13:58 Sunny 38 3.1 19 -7.1 47 47 SSW 6 9 30.28 1026 10 16.0934 0 0
2:56 pm 14:56 Sunny 45 7 23 -5 42 42 Calm 30.25 1024 10 16.0934 0 0
3:58 pm 15:58 Sunny 58 14.4 18 -7.6 21 21 Calm 30.2 1023 10 16.0934 0 0
4:58 pm 16:58 Sunny 64 17.7 11 -11.5 13 13 WNW 8 13 30.16 1022 10 16.0934 0 0
5:58 pm 17:58 Sunny 67 19.7 6 -14.5 9 9 W 9 15 30.13 1020 10 16.0934 0 0
7:58 pm 19:58 Sunny 73 22.6 6 -14.4 7 7 WSW 8 13 30.03 1017 10 16.0934 0 0
8:58 pm 20:58 Sunny 73 23 5 -15.1 7 7 SW 13 20 29.99 1016 10 16.0934 0 0
9:58 pm 21:58 Sunny 73 22.9 11 -11.9 9 9 SSW 10 17 29.98 1015 10 16.0934 0 0
10:58 pm 22:58 Sunny 73 22.8 11 -11.7 9 9 SSW 13 20 29.96 1015 10 16.0934 0 0
11:58 pm 23:58 Sunny 67 19.6 14 -10.2 12 12 S 12 19 29.97 1015 10 16.0934 0 0

Powered by AerisWeather